[[{"header":{"parameterUnit":"m.s-1","parameterCategory":1,"la1":30.2991,"la2":30.254,"lo1":-89.0895,"lo2":-89.0444,"dy":0.0017,"dx":0.0017,"nx":28,"ny":28,"refTime":"2025-12-26T09:00:00:Z","depth":0,"parameterNumber":2,"parameterNumberName":"U-component_of_WINDS"},"data":[0,0,0,0,0,0,0,0,0,0,0,0,0,0,0,0,0,0,0,0,0,0,0,0,0,0,0,0,0,0,0,0,0,0,0,0,0,0,0,0,0,0,0,0,0,0,0,0,0,0,0,0,0,0,0,0,0,0,-0.5075,-0.5074,0,-0.4999,-0.4998,-0.4997,-0.5007,-0.5008,-0.5009,-0.501,-0.493,-0.4927,-0.4924,0,0,0,0,0,0,0,0,0,0,0,0,0,-0.5227,-0.5224,-0.5075,-0.5074,-0.5073,-0.4999,-0.4998,-0.4997,-0.5006,-0.5008,-0.5009,-0.5011,-0.4931,-0.4927,-0.4923,0,0,0,0,0,0,0,0,0,0,0,0,0,-0.5156,-0.5223,-0.5075,-0.5069,-0.5068,-0.4999,-0.4998,-0.4996,-0.5006,-0.5008,-0.501,-0.5012,-0.4933,-0.4928,-0.4923,-0.4855,0,0,-0.4908,-0.4906,0,0,0,0,0,0,0,0,-0.516,-0.5151,-0.5071,-0.5069,-0.5068,-0.5014,-0.5022,-0.4949,-0.5006,-0.5029,-0.501,-0.5013,-0.4957,-0.495,-0.4931,-0.4851,-0.4848,-0.4907,-0.4904,-0.4902,-0.4901,0,0,0,0,0,0,0,-0.5165,-0.5154,-0.5045,-0.507,-0.5068,-0.5069,-0.5061,-0.5008,-0.4983,-0.5028,-0.5028,-0.5019,-0.4956,-0.4936,-0.4929,-0.4847,-0.4908,-0.4903,-0.49,-0.4898,-0.4704,-0.4702,0,0,0,0,0,0,-0.5172,-0.5158,-0.5047,-0.5043,-0.512,-0.5065,-0.5056,-0.5029,-0.4984,-0.4979,-0.5017,-0.502,-0.4944,-0.4935,-0.4927,-0.4841,-0.4902,-0.4898,-0.4895,-0.4706,-0.4704,-0.4701,0,0,0,0,0,0,-0.5175,-0.5162,-0.505,-0.51,-0.5086,-0.506,-0.503,-0.5027,-0.5007,-0.4976,-0.4972,-0.5002,-0.4945,-0.4934,-0.4872,-0.4839,-0.4895,-0.4891,-0.4709,-0.4706,-0.4703,-0.4672,0,0,0,0,0,0,-0.518,-0.5163,-0.5138,-0.51,-0.5084,-0.4998,-0.5028,-0.5024,-0.4999,-0.5001,-0.496,-0.4955,-0.4945,-0.488,-0.4867,-0.4833,-0.4887,-0.4712,-0.4707,-0.4704,-0.4676,-0.4668,-0.4661,0,0,0,0,0,-0.5185,-0.5132,-0.5136,-0.5123,-0.5051,-0.4996,-0.4986,-0.4976,-0.4996,-0.4969,-0.495,-0.4957,-0.4845,-0.4873,-0.4859,-0.4823,-0.4714,-0.4709,-0.4704,-0.4679,-0.4669,-0.4661,0,0,0,0,0,0,-0.5166,-0.5127,-0.5131,-0.5065,-0.5034,-0.4998,-0.4963,-0.4967,-0.4929,-0.4933,-0.4922,-0.4912,-0.4849,-0.4831,-0.4863,-0.4754,-0.4782,-0.4774,-0.4768,-0.4758,-0.4751,-0.4755,-0.4883,0,0,0,0,0,-0.5155,-0.5113,-0.5081,-0.5026,-0.501,-0.499,-0.4965,-0.496,-0.4927,-0.4914,-0.4889,-0.4856,-0.4814,-0.4786,-0.4745,-0.4674,-0.4664,-0.4643,-0.4635,-0.463,-0.4622,-0.458,-0.4569,-0.4685,-0.4685,-0.4685,0,0,-0.5129,-0.5103,-0.5078,-0.5021,-0.4996,-0.4952,-0.4978,-0.4932,-0.4898,-0.4906,-0.4846,-0.4827,-0.479,-0.4722,-0.4692,-0.4705,-0.4588,-0.4623,-0.4619,-0.4614,-0.4574,-0.4563,-0.4553,-0.4682,-0.4682,-0.4683,0,0,-0.506,-0.5038,-0.4987,-0.4962,-0.4924,-0.4911,-0.4899,-0.4862,-0.485,-0.479,-0.4794,-0.4755,-0.4683,-0.4654,-0.4631,-0.4551,-0.4555,-0.4539,-0.45,-0.4459,-0.445,-0.4442,-0.441,-0.4399,-0.4532,-0.4532,-0.4532,0,-0.5033,-0.4968,-0.4961,-0.4913,-0.4887,-0.4893,-0.4841,-0.4817,-0.4768,-0.4749,-0.4765,-0.4673,-0.4648,-0.4573,-0.4554,-0.4536,-0.452,-0.4541,-0.4452,-0.4444,-0.4436,-0.4405,-0.4394,-0.453,-0.453,-0.453,-0.453,0,-0.4936,-0.489,-0.4854,-0.4806,-0.4777,-0.4727,-0.4711,-0.4682,-0.468,-0.4665,-0.4602,-0.4573,-0.4525,-0.4508,-0.4506,-0.4432,-0.4441,-0.4455,-0.4482,-0.4423,-0.4393,-0.4382,-0.4527,-0.4527,-0.4528,-0.4528,0,0,-0.4851,-0.4799,-0.4785,-0.4763,-0.4721,-0.4686,-0.4636,-0.459,-0.4563,-0.453,-0.4486,-0.4425,-0.4437,-0.441,-0.4405,-0.437,-0.4304,-0.4388,-0.4387,-0.437,-0.4217,-0.4204,-0.4191,-0.4309,-0.4307,-0.4305,-0.4219,0,-0.4775,-0.4686,-0.4678,-0.4598,-0.4555,-0.456,-0.4517,-0.4486,-0.4471,-0.4431,-0.4414,-0.4369,-0.4391,-0.4374,-0.434,-0.432,-0.4273,-0.4326,-0.4265,-0.4263,-0.427,-0.4176,-0.4162,-0.4083,-0.4208,-0.4206,-0.4205,0,-0.4674,-0.4636,-0.4552,-0.4515,-0.4497,-0.4457,-0.4413,-0.4376,-0.4341,-0.4332,-0.4302,-0.4302,-0.4249,-0.4281,-0.4207,-0.4243,-0.4218,-0.4204,-0.4201,-0.4192,-0.4227,-0.416,-0.4058,-0.4044,-0.4188,-0.4189,-0.419,0,-0.4616,-0.4545,-0.4484,-0.4465,-0.4422,-0.4393,-0.4374,-0.4341,-0.4313,-0.4275,-0.4256,-0.4212,-0.4187,-0.4153,-0.414,-0.4166,-0.4065,-0.4097,-0.4054,-0.4054,-0.4029,-0.403,-0.3917,-0.402,-0.402,-0.402,-0.402,0,-0.4529,-0.4477,-0.4457,-0.4419,-0.436,-0.4351,-0.4292,-0.4274,-0.4245,-0.4203,-0.4206,-0.4167,-0.4154,-0.4112,-0.4102,-0.404,-0.403,-0.4019,-0.4016,-0.4016,-0.4017,-0.3997,-0.4,-0.4017,-0.4018,-0.4018,-0.4019,0,-0.4453,-0.4438,-0.4371,-0.4336,-0.4326,-0.4283,-0.4252,-0.4215,-0.4201,-0.4147,-0.4134,-0.4112,-0.4062,-0.4047,-0.3988,-0.3981,-0.3907,-0.3911,-0.3918,-0.3917,-0.3872,-0.3875,-0.3739,-0.3719,-0.3839,-0.3838,-0.3837,0,-0.4397,-0.4356,-0.4316,-0.4288,-0.4267,-0.4222,-0.4194,-0.4184,-0.4154,-0.411,-0.4078,-0.4029,-0.3989,-0.3909,-0.3887,-0.3841,-0.3841,-0.3797,-0.3834,-0.3835,-0.3836,-0.3837,-0.3831,-0.3789,-0.3787,-0.3786,-0.3786,0,-0.4298,-0.4292,-0.4251,-0.4206,-0.4172,-0.4136,-0.4102,-0.4079,-0.4064,-0.403,-0.3979,-0.3948,-0.3887,-0.3837,-0.3791,-0.377,-0.3773,-0.3775,-0.3761,-0.3758,-0.3762,-0.3756,-0.3894,-0.3777,-0.3778,-0.3778,-0.3779,-0.3779,-0.4227,-0.419,-0.4155,-0.4108,-0.4081,-0.4049,-0.4011,-0.3993,-0.395,-0.3899,-0.3897,-0.3841,-0.3806,-0.3744,-0.372,-0.3676,-0.3688,-0.367,-0.3665,-0.3659,-0.3654,-0.3773,-0.3668,-0.3668,-0.3668,-0.3669,-0.3669,0,-0.4124,-0.4102,-0.4059,-0.4011,-0.3974,-0.3983,-0.3945,-0.3913,-0.3864,-0.3831,-0.3791,-0.3732,-0.3684,-0.3658,-0.361,-0.3579,-0.3579,-0.3566,-0.3566,-0.356,-0.3647,-0.3661,-0.3566,-0.3566,-0.3566,-0.3566,-0.3566,-0.3566,-0.4066,-0.4003,-0.3993,-0.3916,-0.3894,-0.3839,-0.3817,-0.3786,-0.376,-0.3693,-0.3653,-0.3637,-0.3606,-0.3555,-0.3511,-0.3504,-0.3485,-0.3469,-0.3463,-0.3544,-0.3555,-0.3564,-0.3577,-0.3466,-0.3466,-0.338,-0.3379,-0.3378]},{"header":{"parameterUnit":"m.s-1","parameterCategory":1,"la1":30.2991,"la2":30.254,"lo1":-89.0895,"lo2":-89.0444,"dy":0.0017,"dx":0.0017,"nx":28,"ny":28,"refTime":"2025-12-26T09:00:00:Z","depth":0,"parameterNumber":3,"parameterNumberName":"V-component_of_WINDS"},"data":[0,0,0,0,0,0,0,0,0,0,0,0,0,0,0,0,0,0,0,0,0,0,0,0,0,0,0,0,0,0,0,0,0,0,0,0,0,0,0,0,0,0,0,0,0,0,0,0,0,0,0,0,0,0,0,0,0,0,1.9258,1.926,0,1.9398,1.94,1.9401,1.9419,1.9417,1.9416,1.9415,1.9563,1.9568,1.9573,0,0,0,0,0,0,0,0,0,0,0,0,0,1.9011,1.9016,1.9258,1.926,1.9261,1.9398,1.94,1.9402,1.9419,1.9417,1.9416,1.9414,1.9561,1.9567,1.9573,0,0,0,0,0,0,0,0,0,0,0,0,0,1.9132,1.9017,1.9258,1.9286,1.929,1.9397,1.94,1.9402,1.9419,1.9417,1.9415,1.9413,1.9559,1.9567,1.9574,1.9664,0,0,1.9598,1.9602,0,0,0,0,0,0,0,0,1.9125,1.9141,1.928,1.9285,1.9289,1.9389,1.9367,1.949,1.942,1.937,1.9415,1.9412,1.9507,1.9519,1.955,1.9671,1.9677,1.9599,1.9604,1.9607,1.9609,0,0,0,0,0,0,0,1.9116,1.9135,1.9314,1.9282,1.9288,1.9294,1.9309,1.939,1.9449,1.9375,1.9376,1.9392,1.9509,1.9542,1.9553,1.9679,1.9599,1.9606,1.961,1.9614,1.9884,1.9887,0,0,0,0,0,0,1.9102,1.9128,1.9309,1.9318,1.92,1.93,1.9317,1.9359,1.9448,1.9459,1.9394,1.9393,1.953,1.9544,1.9559,1.9672,1.9607,1.9614,1.9619,1.9882,1.9885,1.9888,0,0,0,0,0,0,1.9097,1.9118,1.9303,1.9223,1.9247,1.9307,1.9354,1.9363,1.9396,1.9462,1.9473,1.9417,1.9529,1.9548,1.9638,1.9677,1.9618,1.9625,1.9879,1.9883,1.9886,1.9898,0,0,0,0,0,0,1.9089,1.9116,1.9149,1.9224,1.9251,1.9379,1.9356,1.9367,1.9409,1.9409,1.9487,1.9498,1.9529,1.9626,1.9646,1.9687,1.9631,1.9876,1.9881,1.9885,1.9894,1.9902,1.9908,0,0,0,0,0,1.9081,1.9147,1.9151,1.9173,1.9294,1.9381,1.9397,1.943,1.9412,1.9447,1.949,1.9495,1.9669,1.9635,1.9657,1.9702,1.9873,1.9879,1.9885,1.9891,1.99,1.9908,0,0,0,0,0,0,1.9077,1.9157,1.9162,1.9255,1.9311,1.9384,1.9429,1.9438,1.9501,1.9498,1.9537,1.9555,1.9645,1.9682,1.9642,1.9795,1.977,1.978,1.9768,1.9776,1.9783,1.9774,1.9638,0,0,0,0,0,1.9087,1.9149,1.9216,1.9292,1.9319,1.9369,1.9408,1.9428,1.9489,1.9513,1.9562,1.9622,1.9691,1.9735,1.9801,1.9899,1.9918,1.9941,1.9947,1.9952,1.9962,2.002,2.0032,1.9906,1.9906,1.9906,0,0,1.9108,1.916,1.9197,1.9292,1.9338,1.9404,1.9389,1.9459,1.9509,1.9524,1.9613,1.9651,1.9721,1.9816,1.986,1.985,2.0001,1.996,1.9963,1.997,2.0027,2.0039,2.0049,1.991,1.9909,1.9909,0,0,1.9181,1.9225,1.9294,1.934,1.9409,1.9442,1.9459,1.9531,1.9557,1.9646,1.966,1.972,1.9836,1.9886,1.9927,2.002,2.0029,2.004,2.0077,2.0133,2.0143,2.0152,2.0189,2.0201,2.0049,2.0049,2.0049,0,1.92,1.9298,1.9329,1.9399,1.9442,1.9457,1.9529,1.9572,1.966,1.9691,1.9677,1.9825,1.9872,1.9981,2.0004,2.0035,2.0057,2.0033,2.0138,2.0148,2.0157,2.0193,2.0206,2.005,2.005,2.005,2.005,0,1.9319,1.9387,1.9435,1.9519,1.9566,1.9637,1.968,1.9726,1.9742,1.9777,1.9869,1.9926,2.0006,2.0033,2.0049,2.0145,2.0137,2.013,2.0107,2.017,2.0204,2.0218,2.0052,2.0052,2.0051,2.0051,0,0,1.9396,1.9495,1.9513,1.9552,1.963,1.9685,1.9756,1.9833,1.9873,1.9933,1.9997,2.0095,2.009,2.0136,2.0158,2.0207,2.0281,2.0195,2.0197,2.0212,2.0395,2.0402,2.0417,2.0286,2.0289,2.0291,2.039,0,1.9481,1.9608,1.9639,1.9749,1.9814,1.983,1.9893,1.9949,1.9983,2.0045,2.0084,2.0155,2.0141,2.0169,2.0217,2.0262,2.0319,2.0254,2.0349,2.0352,2.0335,2.0434,2.0441,2.0532,2.0403,2.0405,2.0407,0,1.9597,1.966,1.9776,1.9848,1.9876,1.9932,2.0007,2.0064,2.0129,2.0151,2.0202,2.022,2.0299,2.0268,2.0379,2.0334,2.0375,2.0402,2.0407,2.042,2.0386,2.0454,2.0562,2.0577,2.0428,2.0426,2.0425,0,1.9646,1.9759,1.9844,1.9877,1.9961,2.0001,2.0038,2.01,2.0145,2.021,2.0241,2.0314,2.0355,2.0413,2.0451,2.0425,2.056,2.0532,2.0583,2.0583,2.0614,2.0612,2.0734,2.0633,2.0633,2.0633,2.0633,0,1.974,1.9812,1.9868,1.9921,2.0003,2.0037,2.0118,2.0155,2.0211,2.0273,2.029,2.0349,2.0393,2.0459,2.0489,2.0578,2.0596,2.0618,2.0626,2.0619,2.0617,2.0649,2.0645,2.0636,2.0636,2.0635,2.0634,0,1.981,1.985,1.9945,2.0016,2.0036,2.0094,2.0156,2.021,2.0244,2.0323,2.0343,2.0399,2.0477,2.0519,2.0617,2.0638,2.0739,2.0741,2.0717,2.0721,2.0772,2.0768,2.0922,2.0945,2.0825,2.0826,2.0827,0,1.987,1.9925,2.0003,2.0045,2.0083,2.0151,2.0197,2.0233,2.0281,2.0359,2.0404,2.0482,2.0547,2.0672,2.0722,2.0798,2.0805,2.0854,2.0817,2.0809,2.0811,2.0809,2.0816,2.0861,2.0862,2.0863,2.0864,0,1.9972,1.9989,2.0054,2.0126,2.018,2.0239,2.0298,2.0332,2.0378,2.0431,2.051,2.0561,2.0661,2.074,2.082,2.0861,2.0872,2.0874,2.0891,2.0887,2.0872,2.0885,2.0739,2.0872,2.0871,2.0871,2.087,2.087,2.0042,2.0093,2.0156,2.0228,2.0276,2.033,2.0385,2.0426,2.0492,2.0576,2.0593,2.0678,2.0743,2.0851,2.0894,2.0963,2.0954,2.0977,2.0984,2.099,2.0994,2.0857,2.0977,2.0977,2.0977,2.0977,2.0977,0,2.0148,2.019,2.0255,2.0337,2.0394,2.0396,2.0462,2.0511,2.0585,2.0643,2.0707,2.08,2.0877,2.0933,2.1013,2.1057,2.1065,2.1077,2.1077,2.1087,2.0996,2.0975,2.107,2.107,2.107,2.107,2.107,2.107,2.0211,2.0299,2.0324,2.0437,2.0478,2.056,2.0598,2.0649,2.0697,2.0799,2.0863,2.0898,2.0957,2.1041,2.1113,2.1128,2.1158,2.1171,2.1187,2.1102,2.1092,2.1083,2.1064,2.1176,2.1177,2.1273,2.1274,2.1275]}]]